EKRAN 18

导读

EKRAN 18是苏联解体后独联体(CIS)于1988年5月6日9时发射的通信卫星,隶属于“萤幕”(Ekran)系列地球静止轨道卫星系统。该系列卫星主要为苏联及独联体地区提供广播电视转播服务,采用高功率转发器,定点于赤道上空静止轨道,填补了高纬度地区卫星电视覆盖的空白。作为冷战时期空间通信技术的产物,EKRAN 18见证了航天领域发展,推动了远程广播电视普及。

Basic Information
目录编号:
19090
目录名称:
EKRAN 18
国际标识:
1988-036A
轨道中心:
EARTH
卫星名称:
EKRAN 18
卫星全名:
--
卫星状态:
在轨 (已飞行13948 天)
发射日期:
1988-05-06 UTC
国别 :
俄罗斯(独联体) (CIS)
星等 :
--
Orbit Information
数据来源 国际轨道数据 AOE轨道数据
星历时间 2026-07-13T16:43:47+0800
21小时前
查看轨道信息
2026-07-11T02:00:00+0800
3天前
查看轨道信息
半长轴 43655.469km 43655.346km
偏心率 0.0010096 0.0010046
轨道倾角 13.349° 13.352°
近地点辐角 98.582° 96.969°
升交点赤经 332.466° 332.484°
平近点角 75.485° 261.477°
近地点 37233.257km 37233.352km
远地点 37321.407km 37321.066km
周期 1512.926分钟 1512.920分钟
每日圈数 0.951798 0.951802
Detailed Information
使用方式:
暂无
2D Orbit Map
3D Orbit Map
Orbit Altitude Analysis Chart
Orbit Inclination Analysis Chart
Orbit Comprehensive Analysis Chart
View Comprehensive Chart